Flag for Finland Weather past 2 weeks in Kuopio, Finland

Now
27 °F

Light snow. Mostly cloudy.


Feels Like: 21 °F
Forecast: 29 / 35 °F
Wind: 5 mph from West

Location: Kuopio Airport

Current Time: Dec 18, 2014 at 10:53:20 AM

Latest Report: Dec 18, 2014 at 10:20 AM


Visibility: N/A

Pressure: 29.36 "Hg

Humidity: 93%

Dew point: 25 °F

Location of KuopioLocation

Historic Weather in Kuopio — Graph

°F

Kuopio temperature yesterday

Maximum temperature yesterday: 34 °F (at 4:20 AM)
Minimum temperature yesterday: 30 °F (at 11:20 PM)
Average temperature yesterday: 33 °F

Past Weeks' High & Low Weather Summary

 TemperatureHumidityPressure
High39 °F (Dec 3, 8:50 PM)100% (Dec 5, 12:20 AM)30.12 "Hg (Dec 5, 12:20 AM)
Low25 °F (Dec 18, 4:50 AM)70% (Dec 3, 6:50 PM)28.94 "Hg (Dec 13, 12:20 PM)
Average33 °F90%29.59 "Hg
* Reported Dec 3 9:20 AM — Dec 18 9:50 AM, Kuopio, Weather by CustomWeather, © 2014

Note: Actual official high and low records may vary slightly from our data, if they occured in-between our weather recording intervals... More about our weather records

Advertising

Kuopio weather history for previous 24 hours

 ConditionsComfort  
Time TempWeatherWind HumidityBarometerVisibility
9:50 AM
Dec 18
27 °FLight snow. Low clouds.6 mph93%29.33 "Hg6 mi
9:20 AM27 °FLight snow. Low clouds.8 mph93%29.33 "Hg6 mi
8:50 AM27 °FLight snow. Low clouds.8 mph93%29.33 "Hg6 mi
8:20 AM27 °FLow clouds.8 mph93%29.33 "Hg6 mi
7:50 AM27 °FLow clouds.8 mph93%29.30 "HgN/A
7:20 AM27 °FLow clouds.10 mph93%29.30 "HgN/A
6:50 AM27 °FLow clouds.10 mph93%29.30 "HgN/A
6:20 AM27 °FMostly cloudy.9 mph93%29.30 "HgN/A
5:20 AM27 °FMostly cloudy.10 mph86%29.30 "HgN/A
4:50 AM25 °FPassing clouds.13 mph93%29.30 "HgN/A
4:20 AM27 °FPassing clouds.12 mph86%29.27 "HgN/A
3:50 AM27 °FPassing clouds.10 mph93%29.27 "HgN/A
3:20 AM27 °FPartly cloudy.12 mph93%29.27 "HgN/A
2:50 AM28 °FOvercast.9 mph86%29.27 "HgN/A
2:20 AM28 °FLow clouds.9 mph86%29.27 "HgN/A
1:50 AM28 °FLow clouds.10 mph93%29.27 "HgN/A
1:20 AM28 °FOvercast.8 mph93%29.27 "HgN/A
12:50 AM28 °FPassing clouds.8 mph93%29.27 "HgN/A
12:20 AM30 °FPartly cloudy.10 mph86%29.27 "HgN/A
11:50 PM
Dec 17
30 °FPassing clouds.14 mph86%29.27 "HgN/A
11:20 PM30 °FLow clouds.12 mph93%29.24 "HgN/A
10:50 PM32 °FSnow flurries. Low clouds.13 mph93%29.24 "HgN/A
10:20 PM32 °FLight mixture of precip. Mostly cloudy.12 mph93%29.24 "Hg2 mi
9:50 PM32 °FLight snow. Mostly cloudy.13 mph93%29.21 "Hg1 mi
9:20 PM32 °FLight snow. Low clouds.10 mph93%29.21 "Hg2 mi
8:50 PM32 °FLight snow. Passing clouds.10 mph100%29.21 "Hg3 mi
8:20 PM32 °FLight snow. Low clouds.9 mph100%29.21 "Hg3 mi
7:50 PM32 °FLight mixture of precip. Low clouds.7 mph100%29.21 "Hg2 mi
7:20 PM32 °FLight mixture of precip. Low clouds.6 mph100%29.21 "Hg2 mi
6:50 PM32 °FLight snow. Low clouds.5 mph100%29.21 "Hg1 mi
6:20 PM32 °FLight rain. Low clouds.2 mph100%29.21 "Hg3 mi
5:50 PM32 °FLight mixture of precip. Low clouds.5 mph100%29.21 "Hg3 mi
5:20 PM32 °FLight snow. Low clouds.6 mph100%29.21 "Hg2 mi
4:50 PM32 °FLight snow. Low clouds.6 mph100%29.21 "Hg2 mi
4:20 PM32 °FLight snow. Low clouds.6 mph100%29.21 "Hg2 mi
3:50 PM32 °FLight snow. Mostly cloudy.6 mph100%29.21 "Hg2 mi
3:28 PM32 °FSleet. Low clouds.5 mph100%29.24 "Hg2 mi
2:50 PM32 °FLight rain. Low clouds.8 mph100%29.24 "Hg2 mi
2:20 PM34 °FLight rain. Low clouds.7 mph93%29.24 "Hg2 mi
1:50 PM34 °FLight rain. Low clouds.8 mph93%29.24 "Hg1 mi
1:20 PM34 °FLight rain. Low clouds.9 mph93%29.27 "Hg3 mi
12:50 PM34 °FLight rain. Low clouds.8 mph93%29.27 "Hg4 mi
12:20 PM34 °FLight snow. Low clouds.13 mph93%29.27 "Hg2 mi
11:50 AM34 °FLight snow. Low clouds.13 mph93%29.27 "Hg4 mi
11:20 AM34 °FLight snow. Low clouds.13 mph93%29.30 "HgN/A
10:50 AM34 °FLight snow. Low clouds.13 mph93%29.30 "HgN/A
10:20 AM32 °FLight snow. Low clouds.12 mph100%29.30 "Hg4 mi
Weather by CustomWeather, © 2014

See weather overviewHow to use our weather pages